{"data":{"norad_id":42826,"epoch":"2026-09-19T17:57:31.185504Z","epoch_age_seconds":113311,"freshness":"FRESH","line1":"1 42826U 17042B   26262.74827761  .00004647  00000+0  25186-3 0  9991","line2":"2 42826  97.4542  68.4801 0008140 111.5348 248.6752 15.15053111501540","mean_motion":15.15053111,"eccentricity":0.000814,"inclination_deg":97.4542,"raan_deg":68.4801,"arg_perigee_deg":111.5348,"mean_anomaly_deg":248.6752,"bstar":0.00025186,"rev_number":50154,"period_min":95.046172939082,"perigee_km":515.20157547529,"apogee_km":526.43307311524,"semimajor_km":6898.9543242953,"source":"CELESTRAK","updated_at":"2026-09-20T09:00:14.215677Z"}}